Home   Weather   Steinbach   Past weeks

Flag for Canada Past Weather in Steinbach, Manitoba, Canada — Yesterday and Last 2 Weeks

Now
83 °F

Warm.


Feels Like: 82 °F
Forecast: 59 / 85 °F
Wind: 6 mph from Southwest

Location: Winnipeg The Forks Man

Current Time: Jul 28, 2017 at 2:06:48 pm

Latest Report: Jul 28, 2017 at 1:00 pm


Visibility: N/A

Pressure: 30.02 "Hg

Humidity: 44%

Dew Point: 58 °F

Location of SteinbachLocation

Past Weather in Steinbach — Graph

°F

Steinbach Temperature Yesterday

Maximum temperature yesterday: 84 °F (at 6:00 pm)
Minimum temperature yesterday: 65 °F (at 5:00 am)
Average temperature yesterday: 75 °F

High & Low Weather Summary for the Past Weeks

 TemperatureHumidityPressure
High84 °F (Jul 27, 6:00 pm)92% (Jul 25, 6:00 am)30.22 "Hg (Jul 25, 6:00 am)
Low56 °F (Jul 16, 6:00 am)29% (Jul 17, 5:00 pm)29.61 "Hg (Jul 17, 5:00 am)
Average70 °F64%29.94 "Hg
* Reported Jul 13 12:00 pm — Jul 28 12:00 pm, Steinbach. Weather by CustomWeather, © 2017

Note: Actual official high and low records may vary slightly from our data, if they occured in-between our weather recording intervals... More about our weather records

Advertising

Steinbach Weather History for the Previous 24 Hours

Scroll right to see more
 ConditionsComfort  
Time TempWeatherWind HumidityBarometerVisibility
12:00 pm
Fri, Jul 28
81 °FWarm.8 mph45%30.03 "HgN/A
11:00 am78 °FWarm.6 mph50%30.04 "HgN/A
10:00 am78 °FWarm.1 mph54%30.05 "HgN/A
9:00 am74 °FMild.2 mph62%30.05 "HgN/A
8:00 am69 °FMild.1 mph77%30.05 "HgN/A
7:00 am66 °FMild.1 mph84%30.05 "HgN/A
6:00 am66 °FMild.1 mph85%30.05 "HgN/A
5:00 am66 °FMild.1 mph84%30.04 "HgN/A
4:00 am66 °FMild.1 mph83%30.04 "HgN/A
3:00 am67 °FMild.No wind79%30.03 "HgN/A
2:00 am69 °FMild.2 mph72%30.03 "HgN/A
1:00 am68 °FMild.2 mph76%30.03 "HgN/A
12:00 am70 °FMild.No wind71%30.03 "HgN/A
11:00 pm
Thu, Jul 27
71 °FMild.1 mph68%30.03 "HgN/A
10:00 pm73 °FMild.No wind56%30.03 "HgN/A
9:00 pm78 °FWarm.1 mph49%30.02 "HgN/A
8:00 pm80 °FWarm.3 mph46%30.03 "HgN/A
7:00 pm83 °FWarm.2 mph44%30.03 "HgN/A
6:00 pm84 °FWarm.1 mph42%30.03 "HgN/A
5:00 pm82 °FWarm.3 mph45%30.04 "HgN/A
4:00 pm82 °FWarm.2 mph44%30.06 "HgN/A
3:00 pm81 °FWarm.3 mph46%30.07 "HgN/A
2:00 pm81 °FWarm.3 mph45%30.07 "HgN/A
Weather by CustomWeather, © 2017

See weather overviewHow to use our weather pages